DateTimeUTC,F1_A11,F1_S11,BsB_S11,BsG_S11,BsR_S11,BbsB_S11,BbsG_S11,BbsR_S11,BaB_A11,BaG_A11,BaR_A11,Tu_S11,T_S11,Uu_S11,U_S11,P_S11,T1_A11
2021-04-27T19:00:00Z,00040200,20000000,,,,,,,-000.30,-000.05,-000.27,20.9,27.7,06.2,04.1,0684.2,31.3
2021-04-27T19:01:00Z,00040200,20000000,,,,,,,0000.17,-000.26,0000.09,20.9,27.7,06.2,04.1,0684.2,31.3
2021-04-27T19:02:00Z,00040200,20000000,,,,,,,-000.21,0000.15,0000.10,20.9,27.7,06.2,04.1,0684.2,31.3
2021-04-27T19:03:00Z,00040200,60000000,,,,,,,0000.30,-000.20,-000.23,20.9,27.7,06.2,04.1,0684.2,31.3
2021-04-27T19:04:00Z,00040200,40000000,0000.80,0000.76,0000.42,-000.23,0000.30,0000.36,0000.50,0000.92,0000.43,21.0,27.5,06.0,04.0,0685.2,31.4
2021-04-27T19:05:00Z,00040200,00000000,0000.35,0000.96,0000.46,-000.25,0000.30,0000.40,0000.22,0000.42,0000.30,21.0,27.5,06.0,04.1,0685.2,31.3
2021-04-27T19:06:00Z,00040200,00000000,0001.25,0000.67,0000.82,0000.20,0000.14,0000.25,0000.30,-000.00,0000.59,21.0,27.5,06.0,04.1,0685.2,31.3
2021-04-27T19:07:00Z,00040200,00000000,0001.50,0000.89,0000.42,0000.30,0000.01,0000.17,0000.37,0000.13,-000.23,21.0,27.5,05.9,04.0,0685.2,31.3
2021-04-27T19:08:00Z,00040200,00000000,0000.28,0000.53,0000.56,-000.49,0000.02,0000.09,0000.04,0000.35,0000.54,21.0,27.5,05.9,04.0,0685.2,31.3
2021-04-27T19:09:00Z,00040200,00000000,0000.64,0000.77,0000.73,0000.09,0000.18,0000.16,0000.41,0000.23,0000.02,21.0,27.5,05.8,04.0,0685.2,31.3
2021-04-27T19:10:00Z,00040200,00000000,0001.04,0000.64,0000.76,0000.23,0000.32,0000.10,0000.14,0000.20,0000.08,21.0,27.5,05.8,04.0,0685.2,31.3
2021-04-27T19:11:00Z,00040200,00000000,0000.57,0000.60,0000.64,0000.02,0000.10,0000.32,0000.57,0000.66,0000.44,21.0,27.5,05.9,04.0,0685.2,31.3
2021-04-27T19:12:00Z,00040200,00000000,0001.37,0000.66,0000.41,0000.21,0000.02,-000.04,0000.52,0000.67,0000.48,21.0,27.4,05.9,04.0,0685.2,31.3
2021-04-27T19:13:00Z,00040200,00000000,0000.81,0000.55,0000.29,-000.10,-000.08,0000.21,0000.49,0000.14,0000.14,21.0,27.4,06.0,04.1,0685.2,31.3
2021-04-27T19:14:00Z,00040200,00000000,0000.53,0000.66,0000.79,0000.16,0000.04,0000.14,0000.71,0000.58,0000.47,21.1,27.5,06.1,04.1,0685.2,31.3
2021-04-27T19:15:00Z,00040200,00000000,0000.30,0000.81,0000.75,0000.16,0000.31,0000.50,0000.37,0000.17,0000.14,21.1,27.5,06.1,04.1,0685.2,31.3
2021-04-27T19:16:00Z,00040200,00000000,0000.68,0000.65,0000.06,0000.01,0000.41,-000.08,0000.12,0000.63,0000.16,21.1,27.5,06.1,04.2,0685.2,31.3
2021-04-27T19:17:00Z,00040200,00000000,0001.01,0000.56,0000.67,0000.09,0000.05,0000.29,0000.35,-000.04,0000.47,21.1,27.4,06.1,04.1,0685.2,31.4
2021-04-27T19:18:00Z,00040200,00000000,0001.48,0000.98,0000.57,0000.12,-000.02,0000.41,0000.02,0000.10,-000.06,21.1,27.4,06.0,04.1,0685.2,31.4
2021-04-27T19:19:00Z,00040200,00000000,0000.97,0000.87,0000.57,0000.21,0000.18,0000.33,0000.38,0000.34,0000.03,21.1,27.4,05.9,04.0,0685.2,31.4
2021-04-27T19:20:00Z,00040200,00000000,0001.26,0000.84,0000.46,0000.21,0000.32,0000.29,0000.24,0000.22,0000.24,21.1,27.4,05.8,04.0,0685.2,31.4
2021-04-27T19:21:00Z,00040200,00000000,0001.62,0000.54,0000.43,0000.24,0000.08,0000.01,0000.05,-000.16,-000.02,21.1,27.4,05.7,03.9,0685.2,31.4
2021-04-27T19:22:00Z,00040200,00000000,0000.94,0000.74,0000.53,-000.02,0000.43,0000.21,0000.49,0000.29,0000.26,21.1,27.4,05.7,03.9,0685.2,31.4
2021-04-27T19:23:00Z,00040200,00000000,0001.74,0000.74,0001.01,0000.20,0000.17,0000.15,-000.11,0000.27,0000.41,21.1,27.4,05.6,03.8,0685.2,31.4
2021-04-27T19:24:00Z,00040200,00000000,0000.83,0000.99,0000.24,-000.55,0000.03,-000.06,0000.72,0000.33,0000.10,21.1,27.4,05.6,03.8,0685.2,31.4
2021-04-27T19:25:00Z,00040200,00000000,0000.87,0000.52,0000.39,-000.02,0000.09,-000.18,-000.20,0000.57,0000.23,21.1,27.4,05.6,03.8,0685.1,31.4
2021-04-27T19:26:00Z,00040200,00000000,0001.26,0000.68,0000.40,0000.36,0000.14,0000.14,0000.36,0000.10,0000.17,21.1,27.4,05.5,03.8,0685.1,31.4
2021-04-27T19:27:00Z,00040200,00000000,0001.42,0000.58,0000.63,-000.15,0000.21,-000.17,0000.56,0000.17,0000.27,21.1,27.4,05.5,03.8,0685.1,31.4
2021-04-27T19:28:00Z,00040200,00000000,0000.46,0000.60,0001.05,-000.13,0000.04,0000.66,0000.38,0000.60,0000.18,21.1,27.4,05.6,03.8,0685.1,31.4
2021-04-27T19:29:00Z,00040200,00000000,0000.85,0000.64,0000.53,0000.44,0000.06,0000.25,0000.13,-000.10,0000.03,21.1,27.4,05.5,03.8,0685.1,31.4
2021-04-27T19:30:00Z,00040200,00000000,0001.94,0000.82,0000.52,-000.24,0000.02,0000.17,0000.32,0000.50,0000.20,21.1,27.4,05.5,03.8,0685.1,31.4
2021-04-27T19:31:00Z,00040200,00000000,0001.25,0000.93,0000.77,0000.37,0000.07,0000.07,0000.27,-000.08,0000.24,21.1,27.4,05.4,03.7,0685.0,31.4
2021-04-27T19:32:00Z,00040200,00000000,0001.19,0000.95,0000.43,0000.21,0000.07,-000.02,0000.29,0000.38,0000.08,21.1,27.4,05.4,03.7,0685.0,31.4
2021-04-27T19:33:00Z,00040200,00000000,0000.98,0000.85,0000.74,0000.11,0000.12,0000.28,0000.54,0000.72,0000.39,21.1,27.4,05.4,03.7,0685.0,31.4
2021-04-27T19:34:00Z,00040200,00000000,0000.51,0000.79,0000.47,0000.08,0000.32,0000.32,-000.06,-000.15,0000.19,21.1,27.4,05.4,03.7,0685.1,31.4
2021-04-27T19:35:00Z,00040200,00000000,0001.25,0000.65,-000.04,-000.28,0000.49,0000.19,0000.31,0000.45,0000.28,21.1,27.4,05.3,03.6,0685.0,31.4
2021-04-27T19:36:00Z,00040200,00000000,0001.05,0000.82,0000.46,0000.00,-000.14,0000.02,0000.31,0000.06,0000.17,21.1,27.4,05.4,03.7,0685.1,31.4
2021-04-27T19:37:00Z,00040200,00000000,0000.78,0000.74,0000.70,0000.02,0000.02,0000.20,0000.47,0000.45,0000.28,21.1,27.4,05.3,03.6,0685.0,31.4
2021-04-27T19:38:00Z,00040200,00000000,0001.45,0000.60,0000.78,0000.08,0000.06,0000.27,0000.33,0000.41,0000.35,21.1,27.4,05.3,03.6,0685.0,31.4
2021-04-27T19:39:00Z,00040200,00000000,0001.06,0000.84,0000.59,0000.23,0000.02,0000.08,0000.01,0000.22,0000.20,21.1,27.4,05.2,03.6,0685.1,31.4
2021-04-27T19:40:00Z,00040200,00000000,0000.94,0000.88,0000.52,-000.03,0000.17,0000.24,0000.66,0000.32,0000.14,21.1,27.4,05.2,03.6,0685.1,31.4
2021-04-27T19:41:00Z,00040200,00000000,0000.90,0000.89,0000.42,-000.21,0000.29,-000.00,0000.20,0000.23,-000.07,21.1,27.4,05.2,03.6,0685.1,31.4
2021-04-27T19:42:00Z,00040200,00000000,0001.02,0000.69,0000.41,0000.11,0000.39,0000.09,0000.31,0000.00,0000.20,21.1,27.4,05.2,03.5,0685.1,31.4
2021-04-27T19:43:00Z,00040200,00000000,0001.18,0000.79,0000.90,-000.14,0000.29,0000.37,0000.34,0000.42,0000.41,21.1,27.4,05.2,03.6,0685.0,31.4
2021-04-27T19:44:00Z,00040200,00000000,0001.23,0000.59,0000.61,-000.38,-000.12,0000.15,0000.21,0000.27,0000.35,21.1,27.4,05.2,03.5,0685.0,31.4
2021-04-27T19:45:00Z,00040200,00000000,0000.98,0000.70,0000.67,0000.17,0000.13,0000.29,0000.46,0000.10,0000.17,21.1,27.4,05.1,03.5,0685.0,31.4
2021-04-27T19:46:00Z,00040200,00000000,0001.15,0000.69,0000.35,0000.09,0000.52,0000.56,0000.70,0000.55,0000.29,21.1,27.4,05.3,03.6,0685.0,31.4
2021-04-27T19:47:00Z,00040200,00000000,0001.34,0000.99,0001.00,0000.17,0000.10,0000.26,-000.30,0000.35,-000.03,21.1,27.4,05.2,03.5,0685.0,31.4
2021-04-27T19:48:00Z,00040200,00000000,0001.21,0000.77,0000.75,-000.09,0000.16,0000.30,0000.55,0000.14,0000.21,21.1,27.4,05.2,03.5,0685.0,31.4
2021-04-27T19:49:00Z,00040200,00000000,0000.80,0000.95,0000.53,0000.39,0000.09,0000.10,-000.04,0000.47,0000.13,21.1,27.4,05.2,03.5,0685.0,31.4
2021-04-27T19:50:00Z,00040200,00000000,0001.32,0000.73,0000.35,0000.66,0000.39,0000.01,0000.38,0000.16,0000.29,21.1,27.4,05.0,03.4,0685.0,31.4
2021-04-27T19:51:00Z,00040200,00000000,0001.20,0000.56,0000.61,0000.34,-000.09,0000.25,0000.48,0000.22,0000.18,21.1,27.4,05.0,03.4,0685.0,31.4
2021-04-27T19:52:00Z,00040200,00000000,0001.82,0000.34,0000.64,0000.13,-000.02,0000.39,0000.57,0000.35,0000.40,21.1,27.4,05.1,03.5,0685.0,31.4
2021-04-27T19:53:00Z,00040200,00000000,0001.23,0000.60,0000.53,0000.31,0000.41,0000.34,0000.08,0000.38,0000.51,21.1,27.4,05.1,03.5,0685.0,31.4
2021-04-27T19:54:00Z,00040200,00000000,0001.34,0000.66,0000.47,0000.02,0000.22,0000.16,0000.36,0000.10,-000.40,21.1,27.4,05.1,03.5,0685.0,31.4
2021-04-27T19:55:00Z,00040200,00000000,0001.07,0000.88,0000.32,0000.00,0000.24,-000.01,0000.50,0000.52,0000.54,21.1,27.4,05.0,03.4,0685.0,31.4
2021-04-27T19:56:00Z,00040200,00000000,0001.40,0000.98,0000.76,0000.48,0000.21,0000.35,0000.66,0000.47,0000.71,21.1,27.4,05.1,03.5,0685.0,31.4
2021-04-27T19:57:00Z,00040200,40000000,,,,,,,0000.12,0000.35,0000.33,21.2,27.5,04.8,03.3,0685.0,31.5
2021-04-27T19:58:00Z,00040200,60000000,,,,,,,-000.43,-000.23,-000.61,20.9,27.5,05.2,03.5,0684.0,31.5
2021-04-27T19:59:00Z,00040200,20000000,,,,,,,0000.04,-000.20,0000.16,20.9,27.6,05.2,03.5,0684.0,31.5
